Weather History for KXNA - January, 2014

Change the Weather History Date:

Wednesday, January 22, 2014

  Actual Average Record
Temperature  
Mean Temperature 30 °F -  
Max Temperature 42 °F - - ()
Min Temperature 18 °F - - ()
Degree Days  
Heating Degree Days 35    
Moisture  
Dew Point 12 °F    
Average Humidity 51    
Maximum Humidity 74    
Minimum Humidity 38    
Precipitation  
Precipitation 0.00 in - - ()
Sea Level Pressure  
Sea Level Pressure 30.19 in    
Wind  
Wind Speed 4 mph (NNW)    
Max Wind Speed 17 mph    
Max Gust Speed 22 mph    
Visibility 10 miles    
Events      
T = Trace of Precipitation, MM = Missing Value Source: NWS Daily Summary

Daily Weather History Graph

Daily Weather History Graph

Search for Another Location

Airport or City:

Trip Planner

Search our weather history database for the weather conditions in past years. The results will help you decide how hot, cold, wet, or windy it might be!

Date:

Astronomy

Jan. 22, 2014 Rise Set
Actual Time 7:24 AM CST 5:33 PM CST
Civil Twilight 6:57 AM CST 6:00 PM CST
Nautical Twilight 6:26 AM CST 6:32 PM CST
Astronomical Twilight 5:55 AM CST 7:02 PM CST
Moon 11:53 PM CST (1/22) 10:38 AM CST (1/22)
Length of Visible Light 11h 03m
Length of Day
10h 08m
Waning Gibbous, 65% of the Moon is Illuminated
Jan 22
Waning Gibbous
Jan 23
Last Quarter
Jan 30
New
Feb 6
First Quarter
Feb 14
Full

Hourly Weather History & Observations

Time (CST) Temp. Windchill Dew Point Humidity Pressure Visibility Wind Dir Wind Speed Gust Speed Precip Events Conditions
12:53 AM 18.0 °F - 7.0 °F 62% 30.17 in 10.0 mi Calm Calm - N/A   Clear
1:53 AM 18.0 °F - 6.1 °F 60% 30.15 in 10.0 mi Calm Calm - N/A   Clear
2:53 AM 18.0 °F - 6.1 °F 60% 30.14 in 10.0 mi Calm Calm - N/A   Clear
3:53 AM 18.0 °F - 6.1 °F 60% 30.14 in 10.0 mi Calm Calm - N/A   Clear
4:53 AM 18.0 °F - 7.0 °F 62% 30.13 in 10.0 mi Calm Calm - N/A   Clear
5:53 AM 18.0 °F - 10.0 °F 71% 30.14 in 10.0 mi Calm Calm - N/A   Clear
6:53 AM 18.0 °F - 10.9 °F 74% 30.15 in 10.0 mi Calm Calm - N/A   Clear
7:53 AM 21.9 °F 14.5 °F 9.0 °F 58% 30.17 in 10.0 mi West 5.8 mph - N/A   Clear
8:53 AM 28.0 °F 18.1 °F 9.0 °F 45% 30.20 in 10.0 mi WNW 11.5 mph - N/A   Clear
9:53 AM 32.0 °F 26.4 °F 10.9 °F 42% 30.22 in 10.0 mi NNW 5.8 mph - N/A   Partly Cloudy
10:53 AM 36.0 °F 30.3 °F 15.1 °F 43% 30.22 in 10.0 mi NNW 6.9 mph - N/A   Clear
11:53 AM 39.0 °F 32.8 °F 18.0 °F 43% 30.20 in 10.0 mi NW 9.2 mph - N/A   Clear
12:53 PM 39.9 °F 32.5 °F 18.0 °F 41% 30.16 in 10.0 mi WNW 12.7 mph 18.4 mph N/A   Clear
1:53 PM 42.1 °F 37.1 °F 19.0 °F 40% 30.14 in 10.0 mi NW 8.1 mph - N/A   Clear
2:53 PM 42.1 °F 35.7 °F 18.0 °F 38% 30.14 in 10.0 mi NNW 11.5 mph 21.9 mph N/A   Clear
3:53 PM 39.0 °F 29.9 °F 16.0 °F 39% 30.15 in 10.0 mi North 17.3 mph - N/A   Clear
4:53 PM 37.0 °F 29.8 °F 17.1 °F 44% 30.17 in 10.0 mi North 10.4 mph - N/A   Clear
5:53 PM 30.9 °F 26.2 °F 16.0 °F 54% 30.20 in 10.0 mi NNW 4.6 mph - N/A   Scattered Clouds
6:53 PM 33.1 °F 27.7 °F 15.1 °F 48% 30.22 in 10.0 mi North 5.8 mph - N/A   Overcast
7:53 PM 28.9 °F 23.9 °F 10.0 °F 45% 30.25 in 10.0 mi North 4.6 mph - N/A   Clear
8:53 PM 28.9 °F - 10.9 °F 47% 30.26 in 10.0 mi Calm Calm - N/A   Clear
9:53 PM 27.0 °F - 12.0 °F 53% 30.27 in 10.0 mi Calm Calm - N/A   Partly Cloudy
10:53 PM 26.1 °F 19.4 °F 10.9 °F 53% 30.28 in 10.0 mi NNW 5.8 mph - N/A   Clear
11:53 PM 30.0 °F 20.0 °F 12.9 °F 49% 30.29 in 10.0 mi North 12.7 mph - N/A   Overcast